Weather in Sandy

Kazakhstan     52°59′55″N   76°18′19″E
temp.,
°C
wind,
m/s
gust,
m/s
humid.,
%
clouds,
%
prec.,
mm/h
press.,
hPa
HPBL,
m
13 june, sun
sun1300:00+13nne235933 0.0 102018
03:00+14nw356227 0.0 1020105
06:00+12n3787100 0.0 1021223
09:00+14nnw2482100 0.1 1021189
12:00+16nw4568100 0.1 1021557
15:00+19nnw5562100 0.1 1021910
18:00+15sw1186100 1.1 102151
21:00+15wsw3486100 0.0 102172
14 june, mon
mon1400:00+15w498662 0.3 1020202
03:00+14nw46915 0.1 1020108
06:00+16nnw368457 0.1 1020132
09:00+22n57580 0.0 1021647
12:00+25nne79374 0.0 10201975
15:00+26nne79315 0.0 10201967
18:00+24nne78365 0.0 10201733
21:00+19nne47575 0.0 1021121
15 june, tue
tue1500:00+16ne35695 0.0 102185
03:00+14ene227825 0.0 102115
06:00+15ene11765 0.0 102143
09:00+21nne125120 0.0 1022639
12:00+25nne233734 0.0 10201413
15:00+27n233335 0.0 10192443
18:00+27n133660 0.0 10181609
21:00+22s33471 0.0 101619
16 june, wed
wed1600:00+22ssw464690 0.0 1016100
03:00+19wsw46546 0.0 101695
06:00+19wnw236247 0.0 101568
09:00+26wnw33415 0.0 1015560
12:00+29wnw34325 0.0 10142201
15:00+30nw3428100 0.0 10132831
18:00+30sw452930 0.0 10122115
21:00+24ene22461 0.1 101317
17 june, thu
thu1700:00+21sw1255100 0.1 101212
03:00+19nw3372100 2.4 101227
06:00+19w357243 2.4 1012125
09:00+25wnw574969 0.0 1011664
12:00+29wnw46375 0.0 10101915
15:00+28wnw4739100 0.0 10082391
18:00+30nw48333 0.1 10072529
21:00+24ene22515 0.0 100611